Content
SEND FEEDBACK

Daily
Averages
Monthly
Summary
United States of America

NEWKIRK, NEW MEXICO


Home > North America > United States > New Mexico
Elevation: 4587 feet     Latitude: 35 04N     Longitude: 104 16W

WEATHER
 
SELECT A DAY
Number of Records: 152,082;   Date Range: 1/2/95 - 10/23/14
 
SHARE

PRINT THIS DATA

[ ← Previous Day ]
WEATHER ALMANAC - FEBRUARY 5, 2013
[ Next Day → ]
[ °C ]   °F
Weather ElementAverageHighLow
Temperature47.3 °F66 °F (11:53 am)30.9 °F (5:53 am)
Dewpoint14 °F16 °F (3:53 am)8.1 °F (11:53 am)
Humidity30 %52 % (6:53 am)10 % (11:53 am)
Barometer29.92 in29.99 in (6:53 pm)29.83 in (1:53 am)
Wind Speed8.8 mph21.9 mph (12:53 pm)
Wind Gust28.8 mph (11:53 am)
Weather ElementAverage
Visibility10 mi
Wind DirectionSE (135 °)

Weather ElementTotal
Precipitation---
Heating Degree Days16.6 (Base 65)
Averaged from 22 records on February 5, 2013
WEATHER CONDITIONS BREAKOUT
WIND DIRECTION BREAKOUT
WEATHER BY HOUR - FEBRUARY 5, 2013
[ °C ]   °F
Local TimeTemperatureDewpointHumidityBarometerVisibilityWind DirectionWind SpeedGust SpeedPrecipitationEventsConditions
1:53 AM39.0 °F14.0 °F36 %29.83 in10.0 miWest (270°)8.1 mphClear
2:53 AM35.1 °F14.0 °F42 %29.83 in10.0 miWest (260°)8.1 mphClear
3:53 AM34.0 °F16.0 °F48 %29.85 in10.0 miNNW (330°)5.8 mphClear
4:53 AM32.0 °F15.1 °F50 %29.87 in10.0 miWest (270°)3.5 mphClear
5:53 AM30.9 °F14.0 °F50 %29.92 in10.0 miNNW (340°)8.1 mphClear
6:53 AM30.9 °F15.1 °F52 %29.97 in10.0 miNW (320°)6.9 mphClear
8:53 AM48.0 °F16.0 °F28 %29.97 in10.0 miVariable3.5 mphClear
9:53 AM55.0 °F12.0 °F18 %29.96 in10.0 miNorth (10°)8.1 mphClear
10:53 AM60.1 °F10.9 °F14 %29.95 in10.0 miNorth (360°)11.5 mphClear
11:53 AM66.0 °F8.1 °F10 %29.91 in10.0 miNE (50°)17.3 mph28.8 mphClear
12:53 PM66.0 °F10.0 °F11 %29.90 in10.0 miENE (60°)21.9 mph26.5 mphClear
1:53 PM64.9 °F12.9 °F13 %29.89 in10.0 miENE (60°)20.7 mph25.3 mphClear
2:53 PM64.0 °F14.0 °F14 %29.91 in10.0 miENE (60°)15.0 mph20.7 mphClear
3:53 PM62.1 °F15.1 °F16 %29.91 in10.0 miENE (70°)11.5 mphClear
4:53 PM60.1 °F15.1 °F17 %29.93 in10.0 miENE (60°)9.2 mphClear
5:53 PM48.9 °F14.0 °F25 %29.97 in10.0 miNE (40°)6.9 mphClear
6:53 PM46.0 °F15.1 °F29 %29.99 in10.0 miNE (40°)6.9 mphClear
7:53 PM44.1 °F15.1 °F31 %29.98 in10.0 miENE (60°)6.9 mphClear
8:53 PM41.0 °F15.1 °F35 %29.96 in10.0 miNE (50°)6.9 mphClear
9:53 PM39.0 °F16.0 °F39 %29.95 in10.0 miCalmClear
10:53 PM37.0 °F15.1 °F41 %29.93 in10.0 miCalmClear
11:53 PM37.0 °F16.0 °F42 %29.91 in10.0 miWest (260°)6.9 mphClear
Hourly data recorded from KTCC, located miles away from Newkirk, New Mexico







STORIES FROM OUR PARTNERS